| time (UTC) | temp F | wind direction | speed MPH | gust MPH | rain 1hr in | rain 24hr in | rain mn in | humidity % | barometer mb |
| 20260505140104 | 69 | 158 | 4.0 | 11.0 | 0.00 | 0.00 | 0.00 | 50 | 1006.6 |
| 20260505124611 | 60 | 0 | 2.0 | 7.0 | 0.00 | 0.00 | 0.00 | 62 | 1007.5 |
| 20260505123114 | 59 | 196 | 4.0 | 8.0 | 0.00 | 0.00 | 0.00 | 65 | 1007.4 |
| 20260505121556 | 57 | 177 | 2.0 | 8.0 | 0.00 | 0.00 | 0.00 | 68 | 1006.8 |
| 20260505120056 | 55 | 153 | 4.0 | 9.0 | 0.00 | 0.00 | 0.00 | 72 | 1006.7 |
| 20260505114600 | 54 | 0 | 2.0 | 6.0 | 0.00 | 0.00 | 0.00 | 74 | 1007.2 |
| 20260505113058 | 52 | 187 | 2.0 | 7.0 | 0.00 | 0.00 | 0.00 | 78 | 1007.4 |
| 20260505111558 | 51 | 157 | 1.0 | 8.0 | 0.00 | 0.00 | 0.00 | 81 | 1007.3 |
| 20260505101549 | 48 | 153 | 1.0 | 6.0 | 0.00 | 0.00 | 0.00 | 84 | 1007.4 |
| 20260505100100 | 48 | 0 | 0.0 | 3.0 | 0.00 | 0.00 | 0.00 | 84 | 1007.3 |
| 20260505094604 | 48 | 150 | 1.0 | 6.0 | 0.00 | 0.00 | 0.00 | 84 | 1007.3 |
| 20260505093056 | 48 | 172 | 2.0 | 5.0 | 0.00 | 0.00 | 0.00 | 83 | 1007.4 |
| 20260505091554 | 48 | 0 | 1.0 | 4.0 | 0.00 | 0.00 | 0.00 | 83 | 1007.3 |
| 20260505090105 | 48 | 0 | 1.0 | 5.0 | 0.00 | 0.00 | 0.00 | 83 | 1007.3 |
| 20260505084550 | 48 | 0 | 0.0 | 5.0 | 0.00 | 0.00 | 0.00 | 82 | 1007.5 |
| 20260505083106 | 48 | 0 | 0.0 | 6.0 | 0.00 | 0.00 | 0.00 | 82 | 1007.5 |
| 20260505081554 | 49 | 169 | 2.0 | 6.0 | 0.00 | 0.00 | 0.00 | 81 | 1007.7 |
| 20260505080056 | 49 | 184 | 2.0 | 7.0 | 0.00 | 0.00 | 0.00 | 79 | 1007.9 |
| 20260505074552 | 50 | 0 | 2.0 | 7.0 | 0.00 | 0.00 | 0.00 | 77 | 1007.8 |
| 20260505073057 | 51 | 158 | 1.0 | 7.0 | 0.00 | 0.00 | 0.00 | 76 | 1007.8 |
| 20260505071551 | 51 | 0 | 1.0 | 6.0 | 0.00 | 0.00 | 0.00 | 74 | 1007.7 |
| 20260505070057 | 52 | 180 | 3.0 | 9.0 | 0.00 | 0.00 | 0.00 | 73 | 1007.9 |
| 20260505064547 | 53 | 140 | 2.0 | 9.0 | 0.00 | 0.00 | 0.00 | 72 | 1008.0 |
| 20260505063051 | 52 | 159 | 3.0 | 9.0 | 0.00 | 0.00 | 0.00 | 72 | 1008.1 |
| 20260505061550 | 53 | 126 | 4.0 | 9.0 | 0.00 | 0.00 | 0.00 | 71 | 1008.2 |
| 20260505060051 | 53 | 168 | 2.0 | 9.0 | 0.00 | 0.00 | 0.00 | 71 | 1008.1 |
| 20260505054557 | 53 | 211 | 3.0 | 14.0 | 0.00 | 0.00 | 0.00 | 72 | 1008.1 |
| 20260505053053 | 52 | 157 | 2.0 | 9.0 | 0.00 | 0.00 | 0.00 | 70 | 1008.0 |
| 20260505051547 | 52 | 190 | 2.0 | 9.0 | 0.00 | 0.00 | 0.00 | 70 | 1007.8 |
| 20260505050125 | 52 | 151 | 3.0 | 7.0 | 0.00 | 0.00 | 0.00 | 72 | 1007.8 |
| 20260505041604 | 52 | 187 | 3.0 | 9.0 | 0.00 | 0.00 | 0.00 | 72 | 1007.6 |
| 20260505040059 | 52 | 172 | 2.0 | 9.0 | 0.00 | 0.00 | 0.00 | 74 | 1007.1 |
| 20260505034551 | 52 | 193 | 2.0 | 8.0 | 0.00 | 0.00 | 0.00 | 74 | 1007.0 |
| 20260505033050 | 52 | 184 | 2.0 | 7.0 | 0.00 | 0.00 | 0.00 | 76 | 1006.7 |
| 20260505031556 | 52 | 202 | 2.0 | 6.0 | 0.00 | 0.00 | 0.00 | 75 | 1006.8 |
| 20260505030055 | 52 | 173 | 1.0 | 5.0 | 0.00 | 0.00 | 0.00 | 76 | 1006.8 |
| 20260505024551 | 52 | 169 | 0.0 | 4.0 | 0.00 | 0.00 | 0.00 | 75 | 1007.0 |
| 20260505023054 | 53 | 164 | 1.0 | 4.0 | 0.00 | 0.00 | 0.00 | 74 | 1006.9 |
| 20260505021553 | 53 | 167 | 1.0 | 4.0 | 0.00 | 0.00 | 0.00 | 72 | 1006.9 |
| 20260505020054 | 54 | 177 | 0.0 | 5.0 | 0.00 | 0.00 | 0.00 | 70 | 1006.9 |
| 20260505014606 | 54 | 161 | 2.0 | 5.0 | 0.00 | 0.00 | 0.00 | 71 | 1006.9 |
| 20260505013054 | 55 | 0 | 0.0 | 3.0 | 0.00 | 0.00 | 0.00 | 66 | 1006.7 |
| 20260505011549 | 55 | 183 | 1.0 | 6.0 | 0.00 | 0.00 | 0.00 | 66 | 1006.5 |
| 20260505010055 | 55 | 171 | 1.0 | 5.0 | 0.00 | 0.00 | 0.00 | 65 | 1006.3 |
| 20260505004550 | 56 | 0 | 0.0 | 3.0 | 0.00 | 0.00 | 0.00 | 65 | 1006.1 |
| 20260505003053 | 57 | 175 | 2.0 | 5.0 | 0.00 | 0.00 | 0.00 | 61 | 1005.8 |
| 20260505001602 | 58 | 176 | 0.0 | 5.0 | 0.00 | 0.00 | 0.00 | 59 | 1005.6 |
| 20260505000131 | 59 | 167 | 0.0 | 5.0 | 0.00 | 0.00 | 0.00 | 55 | 1005.3 |
| 20260504234607 | 61 | 0 | 1.0 | 6.0 | 0.00 | 0.00 | 0.00 | 54 | 1005.2 |
| 20260504233105 | 62 | 189 | 2.0 | 9.0 | 0.00 | 0.00 | 0.00 | 52 | 1004.8 |
| 20260504231553 | 63 | 216 | 2.0 | 6.0 | 0.00 | 0.00 | 0.00 | 46 | 1004.8 |
| 20260504230056 | 65 | 0 | 2.0 | 9.0 | 0.00 | 0.00 | 0.00 | 45 | 1004.7 |
| 20260504224608 | 66 | 248 | 2.0 | 13.0 | 0.00 | 0.00 | 0.00 | 43 | 1004.6 |
| 20260504223054 | 66 | 240 | 2.0 | 11.0 | 0.00 | 0.00 | 0.00 | 39 | 1004.4 |
| 20260504221549 | 67 | 178 | 4.0 | 18.0 | 0.00 | 0.00 | 0.00 | 37 | 1004.4 |
| 20260504220051 | 67 | 244 | 6.0 | 21.0 | 0.00 | 0.00 | 0.00 | 37 | 1004.4 |
| 20260504214548 | 67 | 297 | 8.0 | 17.0 | 0.00 | 0.00 | 0.00 | 37 | 1004.4 |
| 20260504213121 | 68 | 254 | 5.0 | 17.0 | 0.00 | 0.00 | 0.00 | 40 | 1004.5 |
| 20260504211549 | 67 | 126 | 5.0 | 20.0 | 0.00 | 0.00 | 0.00 | 39 | 1004.4 |
| 20260504210055 | 67 | 271 | 7.0 | 16.0 | 0.00 | 0.00 | 0.00 | 40 | 1004.5 |
| 20260504204557 | 67 | 251 | 9.0 | 23.0 | 0.00 | 0.00 | 0.00 | 39 | 1004.4 |
| 20260504203117 | 67 | 267 | 1.0 | 12.0 | 0.00 | 0.00 | 0.00 | 43 | 1004.4 |
| 20260504201556 | 67 | 268 | 5.0 | 12.0 | 0.00 | 0.00 | 0.00 | 44 | 1004.6 |
| 20260504200053 | 68 | 278 | 4.0 | 13.0 | 0.00 | 0.00 | 0.00 | 40 | 1004.7 |
| 20260504194604 | 67 | 0 | 2.0 | 15.0 | 0.00 | 0.00 | 0.00 | 41 | 1004.9 |
| 20260504193105 | 66 | 157 | 6.0 | 15.0 | 0.00 | 0.00 | 0.00 | 46 | 1005.2 |
| 20260504191550 | 64 | 289 | 3.0 | 11.0 | 0.00 | 0.00 | 0.00 | 47 | 1005.3 |
| 20260504190105 | 62 | 242 | 7.0 | 16.0 | 0.00 | 0.00 | 0.00 | 51 | 1005.5 |
| 20260504184559 | 61 | 282 | 3.0 | 10.0 | 0.00 | 0.00 | 0.00 | 53 | 1005.6 |
| 20260504183051 | 60 | 237 | 3.0 | 9.0 | 0.00 | 0.00 | 0.00 | 53 | 1005.7 |
| 20260504181549 | 59 | 25 | 1.0 | 8.0 | 0.00 | 0.00 | 0.00 | 53 | 1005.8 |
| 20260504180051 | 59 | 13 | 3.0 | 8.0 | 0.00 | 0.00 | 0.00 | 54 | 1006.1 |
| 20260504174601 | 59 | 331 | 3.0 | 14.0 | 0.00 | 0.00 | 0.00 | 54 | 1006.0 |
| 20260504173056 | 60 | 322 | 4.0 | 19.0 | 0.00 | 0.00 | 0.00 | 51 | 1005.9 |
| 20260504171551 | 60 | 309 | 7.0 | 21.0 | 0.00 | 0.00 | 0.00 | 53 | 1006.0 |